This demonstration page uses our WeatherBlox Daily Observations layout. Learn more.

Left ArrowRight Arrow

Hourly Observations for February 6, 2022

Temp ( °F °C ) Dew Point ( °F °C ) Humidity (%) Winds ( mph kmh ) Pressure ( in mb ) Visibility ( mi km ) Precip ( " mm )
12:56 am 00:56 Clear 31 -0.6 17 -8.3 56 56 NW 9 15 30.03 1017 10 16 0.00 0.00
1:56 am 01:56 Clear 29 -1.7 16 -8.9 58 58 NNW 12 19 30.06 1018 10 16 0.00 0.00
2:56 am 02:56 Clear 32 0 19 -7.2 59 59 NNW 10 17 30.07 1018 10 16 0.00 0.00
3:56 am 03:56 Clear 33 0.6 21 -6.1 61 61 NNW 12 19 30.09 1019 10 16 0.00 0.00
4:56 am 04:56 Clear 35 1.7 23 -5 61 61 NNW 13 20 30.11 1020 10 16 0.00 0.00
5:56 am 05:56 Clear 32 0 23 -5 69 69 NW 10 17 30.16 1021 10 16 0.00 0.00
6:56 am 06:56 Clear 34 1.1 26 -3.3 73 73 NNW 12 19 30.19 1022 10 16 0.00 0.00
7:56 am 07:56 Sunny 34 1.1 26 -3.3 73 73 NNW 15 24 30.22 1024 10 16 0.00 0.00
8:56 am 08:56 Sunny 34 1.1 26 -3.3 73 73 NW 14 22 30.27 1025 10 16 0.00 0.00
9:56 am 09:56 Sunny 38 3.3 23 -5 55 55 N 36 57 30.28 1026 10 16 0.00 0.00
10:56 am 10:56 Sunny 38 3.3 20 -6.7 48 48 N 33 54 30.32 1027 10 16 0.00 0.00
11:56 am 11:56 Sunny 40 4.4 21 -6.1 47 47 N 29 46 30.34 1027 10 16 0.00 0.00
12:56 pm 12:56 Sunny 41 5 21 -6.1 45 45 N 28 44 30.32 1027 10 16 0.00 0.00
1:56 pm 13:56 Sunny 41 5 21 -6.1 45 45 NNW 22 35 30.32 1027 10 16 0.00 0.00
2:56 pm 14:56 Sunny 43 6.1 20 -6.7 40 40 NNW 21 33 30.29 1026 10 16 0.00 0.00
3:56 pm 15:56 Sunny 44 6.7 19 -7.2 37 37 N 18 30 30.30 1026 10 16 0.00 0.00
4:56 pm 16:56 Mostly Sunny 43 6.1 19 -7.2 38 38 N 14 22 30.30 1026 10 16 0.00 0.00
5:56 pm 17:56 Sunny 40 4.4 18 -7.8 41 41 NNW 7 11 30.31 1026 10 16 0.00 0.00
6:56 pm 18:56 Clear 35 1.7 17 -8.3 48 48 W 5 7 30.32 1027 10 16 0.00 0.00
7:56 pm 19:56 Cloudy 31 -0.6 18 -7.8 59 59 NNW 3 6 30.35 1028 10 16 0.00 0.00
8:56 pm 20:56 Mostly Clear 26 -3.3 14 -10 60 60 S 5 7 30.36 1028 10 16 0.00 0.00
9:56 pm 21:56 Cloudy 31 -0.6 19 -7.2 61 61 SW 7 11 30.35 1028 10 16 0.00 0.00
10:56 pm 22:56 Cloudy 33 0.6 17 -8.3 52 52 SW 6 9 30.34 1027 10 16 0.00 0.00
11:56 pm 23:56 Cloudy 32 0 18 -7.8 56 56 SSW 7 11 30.32 1027 10 16 0.00 0.00

Powered by AerisWeather